Location: ????? ??????
(37.8317°N, 23.8750°E)
Time: 13:43:10
(UTC+00:00)

Cosmos 1726 Rocket - Pass Details

Date: 20 January 2021
Orbit: 604 x 628 km, 82.5° (Epoch: 03 March)

Event Time Altitude Azimuth Distance (km) Brightness Sun altitude
Rises 16:02:17 0° 359° (N) 2,881 6.8 -5.8°
Reaches altitude 10° 16:04:35 10° 6° (N) 1,976 5.9 -6.3°
Maximum altitude 16:08:47 45° 80° (E) 847 3.8 -7.0°
Drops below altitude 10° 16:12:59 10° 153° (SSE) 1,977 6.1 -7.8°
Sets 16:15:17 0° 159° (SSE) 2,882 7.0 -8.3°
